Location: Smyrna_Hopewell
(35.6500°N, 81.0330°W)
Time: 14:25:21
(UTC-04:00)

Cosmos 2221 - Visible Passes

Search period start: 28 July 2014 00:00
Search period end: 07 August 2014 00:00
Orbit: 599 x 622 km, 82.5° (Epoch: 27 July)

Date Brightness Start Highest point End Pass type
(mag) Time Alt. Az. Time Alt. Az. Time Alt. Az.
28 Jul 4.9 02:46:21 18° ENE 02:46:21 18° ENE 02:48:30 10° NE visible
28 Jul 3.8 04:23:21 27° WNW 04:23:21 27° WNW 04:26:34 10° NNW visible
29 Jul 4.4 03:01:12 28° NE 03:01:12 28° NE 03:03:52 10° NNE visible
29 Jul 4.5 04:38:12 16° WNW 04:38:12 16° WNW 04:40:21 10° NW visible
30 Jul 3.9 03:16:03 37° NNE 03:16:03 37° NNE 03:18:50 10° NNE visible
31 Jul 3.9 03:30:52 35° NNW 03:30:52 35° NNW 03:33:31 10° N visible
01 Aug 5.4 02:08:41 12° NE 02:08:41 12° NE 02:09:15 10° NE visible
01 Aug 4.3 03:45:40 25° NW 03:45:40 25° NW 03:47:55 10° NNW visible
02 Aug 5.1 02:23:28 18° NE 02:23:28 18° NE 02:24:51 10° NNE visible
02 Aug 4.7 04:00:28 16° NW 04:00:28 16° NW 04:01:56 10° NNW visible
03 Aug 4.9 02:38:15 22° NNE 02:38:15 22° NNE 02:39:56 10° NNE visible
04 Aug 4.8 02:53:01 23° N 02:53:01 23° N 02:54:42 10° N visible
05 Aug 4.9 03:07:46 20° NNW 03:07:46 20° NNW 03:09:13 10° N visible
06 Aug 5.6 01:45:31 11° NE 01:45:31 11° NE 01:45:45 10° NE visible
06 Aug 5.1 03:22:30 14° NNW 03:22:30 14° NNW 03:23:24 10° NNW visible
